Regional Weather Roundup
Issued by NWS

Home | Current Version | Previous Version | Text Only | Print | Product List | Glossary Off
Versions: 1 2 3 4 5 6 7 8 9 10 11 12 13 14 15 16 17 18 19 20 21 22 23 24 25 26 27 28 29 30 31 32 33 34 35 36 37 38 39 40 41 42 43 44 45 46 47 48 49 50

000
ASUS45 KBOU 041007
RWRCO

WEATHER ROUNDUP FOR COLORADO
NATIONAL WEATHER SERVICE DENVER/BOULDER CO
300 AM MST WED MAR 04 2015

NOTE: "FAIR" INDICATES FEW OR NO CLOUDS BELOW 12000 FEET WITH NO
SIGNIFICANT WEATHER AND/OR OBSTRUCTIONS TO VISIBILITY.

COZ001>005-013-030-031-041100-
...NORTHWEST COLORADO...

CITY           SKY/WX    TMP DP  RH WIND       PRES   REMARKS
CRAIG          CLOUDY    14   5  67 SW7       29.97S WCI   4
HAYDEN         PTCLDY    10   3  72 W8        29.93S WCI  -1
MEEKER         CLOUDY    15   8  73 NE6       29.95S WCI   6
MOUNT WERNER   NOT AVBL
STEAMBOAT SPGS CLOUDY    14   8  79 CALM      29.92R
WALDEN         CLOUDY     5   0  78 NW9       29.83R WCI  -9
$$

COZ006>008-011-041100-
...WEST CENTRAL VALLEYS...

CITY           SKY/WX    TMP DP  RH WIND       PRES   REMARKS
GRAND JUNCTION LGT SNOW  27  27 100 SE3       29.93F FOG
MONTROSE       CLOUDY    28  26  92 CALM      29.91F
EAGLE          MOCLDY    19  18  93 E5        29.92S WCI  13
RIFLE          CLOUDY    26  12  55 NW5       29.95R WCI  20
DELTA          MOCLDY    31  29  92 CALM      29.90S
NUCLA          LGT SNOW  30  28  93 S3        29.94S
$$

COZ017>023-064>068-041100-
...SOUTHWEST COLORADO...

CITY           SKY/WX    TMP DP  RH WIND       PRES   REMARKS
DURANGO        CLOUDY    19  15  84 NE5       29.86S WCI  12
CORTEZ         CLOUDY    30  27  88 CALM      29.90R
PAGOSA SPRINGS FOG       24  24 100 CALM      29.85F VSB 1
TELLURIDE      LGT SNOW  19  18  95 W9G17     29.84S WCI   8
WOLF CREEK PAS CLOUDY     9   7  92 MISG      29.78F
$$

COZ009-010-012-014-032>034-037-058>063-041100-
...CENTRAL COLORADO...

CITY           SKY/WX    TMP DP  RH WIND       PRES   REMARKS
ASPEN          FLURRIES  20  17  88 N8        29.81F WCI  10
BUENA VISTA    LGT SNOW  22  18  83 N6        29.78R WCI  15
COPPER MTN     NOT AVBL
BERTHOUD PASS  CLOUDY    -4  -9  77 MISG      29.65F
COTTONWOOD PAS LGT SNOW  19  16  86 SE5       29.74S WCI  13
GUNNISON       PTCLDY    21  16  79 CALM      29.84S
KREMMLING      CLOUDY    19   5  53 NW6       29.88S WCI  11
LEADVILLE      LGT SNOW  10   7  87 N5        29.74S FOG     WCI   2
SALIDA         MOCLDY    25  17  73 N9        29.86R WCI  15
SUNLIGHT       CLOUDY   N/A N/A N/A W3          N/A
WILKERSON PASS LGT SNOW  10   9  92 NW5       29.74S VSB 3/4 WCI   2
$$

COZ069>075-041100-
...SAN LUIS VALLEY/SANGRE DE CRISTO MOUNTAINS...

CITY           SKY/WX    TMP DP  RH WIND       PRES   REMARKS
ALAMOSA        CLEAR     20  16  84 S7        29.81S WCI  11
LA VETA PASS   CLOUDY    18  14  86 MISG      29.77S
SAGUACHE       PTCLDY    19  14  79 NW10      29.81S WCI   8
$$

COZ035-036-038>040-041100-
...NORTHERN COLORADO FRONT RANGE...

CITY           SKY/WX    TMP DP  RH WIND       PRES   REMARKS
DENVER INTL AP LGT SNOW  11   9  92 NE10      30.00R FOG     WCI  -3
DMNS CITY PARK   N/A     12   9  90 N8        30.01R WCI   0
AURORA         LGT SNOW  11   9  93 NE12      29.98R FOG     WCI  -4
FRONT RANGE AP CLOUDY    14  12  92 NE6       30.00R WCI   5
ERIE MUNI ARPT FLURRIES  13  10  89 NE5       30.03R WCI   5
BOULDER MUN AP LGT SNOW  12  10  92 NE3       30.02R
CENTENNIAL     LGT SNOW  11   8  88 N10       29.96R VSB 1   WCI  -3
BROOMFIELD     FLURRIES  12  10  92 NE8       29.99S WCI   1
FORT COLLINS   CLOUDY    12   9  85 NE6       30.04R WCI   3
LONGMONT       LGT SNOW  15  11  83 CALM      30.06R
$$

COZ041-046-047-076>085-087-088-041100-
...PIKES PEAK/PALMER DIVIDE AND SOUTHERN FOOTHILLS...

CITY           SKY/WX    TMP DP  RH WIND       PRES   REMARKS
COLO. SPRINGS  LGT SNOW  19  15  84 N13       29.90R FOG     WCI   6
A. F. ACADEMY  FLURRIES  17  12  81 N9        29.88R WCI   5
ELLICOTT       NOT AVBL
FALCON         FLURRIES  15  13  92 NE8       29.88S WCI   4
FORT CARSON    LGT SNOW  21  20  96 VRB2      29.90R VSB 3/4
LIMON          LGT SNOW  13  10  88 NE14      29.97R FOG     WCI  -2
MONUMENT HILL  LGT SNOW  10   9  92 NE8       29.87R WCI  -1
TRINIDAD       FOG       27  24  89 NE14      29.86R VSB 1/4 WCI  16
$$

COZ042>045-048>051-090-091-041100-
...NORTHEAST COLORADO...

CITY           SKY/WX    TMP DP  RH WIND       PRES   REMARKS
GREELEY ARPT   CLOUDY    14   5  67 NE7       30.04S WCI   4
AKRON          LGT SNOW  12  10  92 NE8       30.03R FOG     WCI   0
BURLINGTON     LGT SNOW  15  12  88 NE8       30.04R FOG     WCI   4
WRAY           LGT SNOW  17  15  90 N5        30.10R WCI  10
STERLING       LGT SNOW  16  12  86 N10       30.08R WCI   3
HOLYOKE        NOT AVBL
FORT MORGAN    LGT SNOW  14  11  87 NE13      30.06R WCI   0
$$

COZ086-089-092>099-041100-
...SOUTHEAST COLORADO...

CITY           SKY/WX    TMP DP  RH WIND       PRES   REMARKS
PUEBLO         CLOUDY    24  22  91 E13       29.94R FOG     WCI  12
LA JUNTA       CLOUDY    25  22  88 E17       29.97S FOG     WCI  12
LAMAR          CLOUDY    23  18  81 E18G24    30.01R WCI   9
SPRINGFIELD      N/A     21  19  92 NE10      29.95F WCI  10
$$


USA.gov is the U.S. government's official web portal to all federal, state and local government web resources and services.